www.pogodaiklimat.ru

Погода и климат >> Архив погоды >> Эквадор >> Milagro


ПОГОДА в Milagro

  • Прогноз погоды в Milagro
  • Монитор погоды в Milagro
  • Климат города

АРХИВ ПОГОДЫ в Milagro

Время (UTC), дата Ветер
(напр.,м/с)
 
Видим.   Явления Облачность Т
(С)
Тd
(С)
f
(%)
Тe
(С)
Тes
(С)
Комфортность P
(гПа)
Po
(гПа)
Тmin
(С)
Tmax
(С)
R
(мм)
S
(см)
12 16.03 ЮЗ 2 10 км мгла {туман} 5/0 2000 м
[Ac trans Ci fib]
+24.6 +23.9 96 +34 +34 очень
душно
1010.8 1010.8 +24.4 +30.9
15 16.03 ЮЗ 6 20 км мгла {туман} 5/4 300 м
[Cu med, cong Cc]
+28.8 +25.0 80 +42 +45 опасность
перегрева
1011.6 1011.6
18 16.03 СВ 6 20 км мгла {туман} 5/4 300 м
[Cu med, cong Ac lent]
+30.8 +25.8 75 +46 +50 опасность
перегрева
1010.0 1010.0
21 16.03 З 6 25 км мгла {туман} 4/3 300 м
[Cu med, cong Ac lent Ci sp]
+32.8 +26.1 68 +49 +51 опасность
перегрева
1006.7 1006.7 +33.2
00 17.03 штиль 0 5000 м слабая морось {туман} 9/8 300 м
[Frnb Ac lent]
+27.2 +26.0 93 +41 +41 опасность
перегрева
1009.1 1009.1 +33.2 0.4
12 17.03 штиль 0 8000 м мгла {туман, морось} 9/5 300 м
[St Ac As]
+24.6 +23.9 96 +34 +34 очень
душно
1011.4 1011.4 +24.3 +33.2 7
15 17.03 штиль 0 15 км мгла {туман} 9/4 300 м
[St As trans]
+27.2 +25.7 92 +40 +46 очень
душно
1012.4 1012.4
00 18.03 штиль 0 5000 м зарница {туман, ливн. осадки} 4/4 300 м
[Cu med, cong Ac lent Ci sp]
+28.2 +26.6 91 +44 +44 опасность
перегрева
1007.5 +31.1 4
12 18.03 штиль 0 8000 м мгла {туман, дождь} 10/4 300 м
[St As trans]
+23.2 +22.5 96 +32 +32 очень
душно
1010.1 1010.1 +23.2 +31.1 19
15 18.03 ЮЗ 2 15 км мгла {туман} 9/5 300 м
[St As trans]
+26.5 +24.2 87 +37 +41 очень
душно
1012.3 1012.3
18 18.03 СВ 4 15 км мгла {туман} 9/8 300 м
[Frnb As trans]
+26.8 +24.5 87 +38 +40 очень
душно
1011.0 1011.0 6
21 18.03 СВ 4 18 км мгла {туман} 5/3 300 м
[Cb calv Ac lent]
+30.2 +23.5 67 +41 +43 опасность
перегрева
1007.4 +30.5
00 19.03 штиль 0 5000 м 6/0
[As trans]
+28.2 +25.8 87 +42 +42 опасность
перегрева
1008.6 1008.6 +30.6 3
15 19.03 Ю 2 15 км мгла {туман} 8/4 300 м
[St Ac trans]
+26.7 +24.1 86 +37 +43 очень
душно
1012.1 1012.1
18 19.03 ЮЗ 2 15 км мгла {туман} 4/3 300 м
[St Ac lent]
+29.9 +25.1 75 +43 +56 опасность
перегрева
1009.5 1009.5
21 19.03 ЮЗ 2 18 км мгла {туман} 4/1 300 м
[Cu med, cong As trans]
+32.5 +25.9 68 +48 +53 опасность
перегрева
1007.0 1007.0 +32.9
00 20.03 ЮЗ 2 5000 м 5/4 300 м
[St Ac lent]
+27.2 +24.2 84 +38 +38 очень
душно
1009.0 1009.0 +32.9
12 20.03 штиль 0 8000 м мгла {туман, морось} 9/6 600 м
[Sc As trans]
+24.0 +23.6 98 +33 +33 очень
душно
1010.8 1010.8 +23.7 +32.9 7
15 20.03 ЮВ 2 15 км мгла {туман} 8/5 300 м
[Sc diur, vesp As trans]
+27.7 +25.0 85 +40 +45 очень
душно
1012.4 1012.4
18 20.03 штиль 0 20 км мгла {туман} 6/5 300 м
[Cu med, cong Ac As]
+31.0 +25.3 72 +45 +58 опасность
перегрева
1010.0 1010.0
21 20.03 ЮЗ 2 25 км мгла {туман} 5/3 300 м
[Cu med, cong Ac lent Cs]
+32.1 +26.2 71 +48 +52 опасность
перегрева
1007.0 1007.0 +32.4
00 21.03 ЮЗ 2 5000 м зарница {туман} 5/3 300 м
[Cb calv Ac lent Ci sp]
+28.6 +26.1 86 +43 +43 опасность
перегрева
1008.1 +32.7
15 21.03 штиль 0 15 км мгла {туман} 6/3 300 м
[Sc diur, vesp As trans]
+27.8 +24.6 83 +39 +50 очень
душно
1011.5 1011.5
18 21.03 СЗ 8 25 км мгла {туман} 4/4 300 м
[Cu hum Ci sp]
+30.8 +25.2 72 +45 +47 опасность
перегрева
1008.7 1008.7
21 21.03 СЗ 6 25 км мгла {туман} 5/3 300 м
[Cu med, cong Cs]
+32.9 +26.6 70 +50 +52 опасность
перегрева
1005.5 1005.5 +33.6
00 22.03 штиль 0 5000 м 6/5 300 м
[Sc Ci sp]
+30.7 +27.2 82 +49 +49 опасность
перегрева
1007.0 1007.0 +33.7
12 22.03 Ю 2 5000 м в посл. час морось {дождь} 10/8 300 м
[St As trans]
+24.4 +23.7 96 +33 +33 очень
душно
1010.2 1010.2 +23.9 +33.7 7
15 22.03 Ю 2 5000 м в посл. час морось {дождь} 10/8 300 м
[St As trans]
+24.4 +23.7 96 +33 +34 очень
душно
1010.2 1010.2 +23.9 +33.7 7
18 22.03 штиль 0 10 км мгла {морось, туман} 9/9 300 м
[Cu Sc As trans]
+27.9 +24.2 80 +39 +42 очень
душно
1010.4 1010.4 0.1

 

Местоположение метеостанции Milagro (Эквадор): широта -2.12 долгота -79.60 высота над уровнем моря 13 м.

В архиве по умолчанию представлена погода в Milagro за последнюю неделю. Архивные данные за месяц целиком и за предыдущие месяцы, начиная с января 2011 года, Вы можете получить, выбрав интересующий диапазон дат из раскрывающегося списка и нажав кнопку "Ввод!".

Внимание! Время в таблицах - всемирное. Для получения местного времени необходимо прибавить поправку, которая в Milagro равна -5 ч.

Смотрите также архив погоды в соседних городах и на ближайших метеорологических станциях:

Погода в Guayaquil (Эквадор) (31 км)
Погода в Guayaquil Aeropuerto (Эквадор) (31 км)
Погода в Canar (Эквадор) (88 км)
Погода в Cuenca (Эквадор) (109 км)
Погода в Pichilingue (Эквадор) (115 км)
Погода в Riobamba (Эквадор) (117 км)
Погода в Corazon (Эквадор) (124 км)
Погода в Machala (Эквадор) (132 км)
Погода в Querochaca (Эквадор) (139 км)
Погода в Santa Rosa (Эквадор) (152 км)

Пояснения к столбцам:

Ветер - указаны скорость ветра в м/с - средняя за 10 мин, порывы в срок и между сроками (в фигурных скобках) и направление, откуда дует ветер: С - северный, СВ - северо-восточный, В - восточный, ЮВ - юго-восточный, Ю - южный, ЮЗ - юго-западный, З - западный, СЗ - северо-западный.
Видимость - горизонтальная дальность видимости в метрах или километрах. При видимости от 1 до 10 км при отсутствии осадков обычно наблюдается дымка, при ухудшении видимости до 1 км и менее - туман. В сухую погоду видимость может ухудшаться дымом, пылью или мглою.
Явления - указаны атмосферные явления, наблюдавшиеся в срок или в последний час перед сроком; фигурными скобками обозначены явления, наблюдавшиеся между сроками (за 1-3 часа до срока); квадратными скобками обозначены град или гололедные отложения с указанием их диаметра в мм.
Облачность - указаны через наклонную черту общая и нижняя облачность в баллах и высота нижней границы облаков в метрах; квадратными скобками обозначены формы облаков: Ci - перистые, Cs - перисто-слоистые, Cc - перисто-кучевые, Ac - высококучевые, As - высокослоистые, Sc - слоисто-кучевые, Ns - слоисто-дождевые, Cu - кучевые, Cb - кучево-дождевые. Подробнее классификацию облаков см. в Атласе облаков (PDF).
T - Температура воздуха - температура, измеренная на высоте 2 м над землей.
Td - Температура точки росы - температура, при понижении до которой содержащийся в воздухе водяной пар достигнет насыщения.
f - Относительная влажность воздуха - влажноcть воздуха, измеренная на высоте 2 м над землей.
Te - Эффективная температура - температура, которую ощущает одетый по сезону человек в тени. Характеристика душности погоды. При расчете учитывается влияние влажности воздуха и скорости ветра на теплоощущения человека.
Tes - Эффективная температура на солнце - температура, которую ощущает человек, с поправкой на солнечный нагрев. Характеристика знойности погоды. Зависит от высоты солнца над горизонтом, облачности и скорости ветра. Ночью, в пасмурную погоду, а также при ветре 12 м/с и более поправка равна нулю.
P - Атмосферное давление - приведенное к уровню моря атмосферное давление.
Po - Атмосферное давление - измеренное на уровне метеостанции атмосферное давление.
Tmin - Минимальная температура - минимум температуры воздуха на высоте 2 м над землей.
Tmax - Максимальная температура - максимум температуры воздуха на высоте 2 м над землей.
R - Количество осадков - Количество выпавших осадков, мм. При наведении курсора мыши на число - период времени, за который выпало указанное количество осадков.
S - Снежный покров - Высота снежного покрова, см. При наведении курсора мыши на число - состояние снежного покрова и степень покрытия местности в баллах.